www.pogodaiklimat.ru

Погода и климат >> Архив погоды >> Пакистан >> Сиялкот


ПОГОДА в Сиялкоте

  • Прогноз погоды в Сиялкоте
  • Монитор погоды в Сиялкоте

АРХИВ ПОГОДЫ в Сиялкоте

Время (UTC), дата Ветер
(напр.,м/с)
 
Видим.   Явления Облачность Т
(С)
Тd
(С)
f
(%)
Тe
(С)
Тes
(С)
Комфортность P
(гПа)
Po
(гПа)
Тmin
(С)
Tmax
(С)
R
(мм)
R24
(мм)
S
(см)
06 19.08 штиль 0 4000 м 6/3 1000 м
[Sc Ac As]
+29.5 +21.4 62 +37 +49 очень
душно
1005.3 977.0
09 19.08 штиль 0 4000 м 3/3 1000 м
[Sc diur, vesp]
+32.0 +24.2 63 +44 +58 опасность
перегрева
1004.4 1000.0
12 19.08 штиль 0 4000 м 3/0
[Ac trans]
+33.0 +25.3 64 +47 +50 опасность
перегрева
1002.5 974.7 +33.5
15 19.08 штиль 0 4000 м 4/4 1000 м
[Sc]
+29.0 +23.2 71 +39 +39 очень
душно
1001.9 973.3
18 19.08 штиль 0 4000 м 3/3 1000 м
[Sc]
+27.0 +22.6 77 +36 +36 очень
душно
1004.2 935.7
21 19.08 штиль 0 4000 м дым 3/3 1000 м
[Sc]
+26.0 +22.3 80 +34 +34 очень
душно
1004.6 1000.0
00 20.08 штиль 0 4000 м дым ясно +26.0 +23.1 84 +35 +35 очень
душно
1005.1 976.5
03 20.08 штиль 0 4000 м ясно +29.0 +24.8 78 +41 +49 опасность
перегрева
1004.8 976.3 +25.5
06 20.08 штиль 0 4000 м 3/0
[Ac trans]
+31.0 +23.9 66 +43 +63 опасность
перегрева
1005.0 976.9
09 20.08 СЗ 1 4000 м ясно +33.0 +23.8 59 +45 +62 опасность
перегрева
1003.4 1000.0
12 20.08 СЗ 1 4000 м 3/3 1000 м
[Sc diur, vesp]
+33.0 +24.6 61 +46 +48 опасность
перегрева
1001.3 973.5 +34.1
15 20.08 штиль 0 4000 м 3/3 1000 м
[Sc diur, vesp]
+30.5 +24.1 69 +42 +42 опасность
перегрева
1001.5 973.1
18 20.08 штиль 0 4000 м ясно +28.0 +23.7 77 +38 +38 очень
душно
1002.5 974.2
21 20.08 штиль 0 4000 м ясно +27.5 +24.1 82 +38 +38 очень
душно
1002.5 1000.0
00 21.08 штиль 0 4000 м 3/3 1000 м
[Sc diur, vesp]
+26.5 +24.4 88 +37 +37 очень
душно
1002.2 973.6
03 21.08 штиль 0 4000 м ясно +29.0 +24.8 78 +41 +49 опасность
перегрева
1002.5 974.3 +26.1
06 21.08 ЮВ 1 4000 м 3/3 1000 м
[Sc diur, vesp]
+33.0 +26.1 67 +49 +65 опасность
перегрева
1002.8 975.0
09 21.08 штиль 0 4000 м 3/3 1000 м
[Sc diur, vesp]
+35.0 +26.1 60 +51 +65 опасность
перегрева
1001.4 1000.0
12 21.08 С 1 4000 м 3/3 1000 м
[Sc diur, vesp]
+35.0 +25.3 57 +49 +51 опасность
перегрева
1000.5 972.7 +36.0
15 21.08 штиль 0 4000 м 3/3 1000 м
[Sc]
+31.0 +26.1 75 +46 +46 опасность
перегрева
1000.4 1000.0
18 21.08 штиль 0 4000 м 3/3 1000 м
[Sc]
+29.0 +25.5 81 +43 +43 опасность
перегрева
1001.6 973.4
21 21.08 штиль 0 4000 м 3/3 1000 м
[Sc]
+27.5 +25.4 88 +40 +40 очень
душно
1003.1 1000.0
00 22.08 штиль 0 4000 м гроза без осадков 10/5 1000 м
[Cb cap As op]
+26.5 +24.4 88 +37 +37 очень
душно
1001.6 973.2
03 22.08 штиль 0 4000 м 3/3 1000 м
[Sc]
+30.0 +26.2 80 +45 +51 опасность
перегрева
1004.7 974.7 +26.3
06 22.08 штиль 0 4000 м 8/4 1000 м
[Sc Ac As]
+33.0 +26.8 70 +51 +58 опасность
перегрева
1002.5 974.7
09 22.08 штиль 0 4000 м 8/4 1000 м
[Sc Ac As]
+34.0 +27.2 68 +53 +59 опасность
перегрева
1000.9 1000.0
12 22.08 штиль 0 4000 м 8/4 1000 м
[Sc Ac As]
+34.0 +27.2 68 +53 +54 опасность
перегрева
999.2 971.3 +35.1
15 22.08 штиль 0 4000 м 4/4 1000 м
[Frnb]
+32.0 +24.8 66 +45 +45 опасность
перегрева
999.8 1000.0
18 22.08 штиль 0 4000 м зарница {гроза} 5/5 600 м
[Cb calv]
+30.0 +26.5 82 +46 +46 опасность
перегрева
1001.5 973.5
21 22.08 штиль 0 4000 м дым {гроза} 4/4 1000 м
[Sc]
+29.0 +26.4 86 +44 +44 опасность
перегрева
1002.6 1000.0
00 23.08 штиль 0 4000 м дым 9/4 1000 м
[Sc diur, vesp Ac As]
+27.0 +24.1 84 +37 +37 очень
душно
1002.1 973.7
03 23.08 штиль 0 4000 м 4/0
[Ac trans]
+29.0 +24.8 78 +41 +47 опасность
перегрева
1003.7 975.4 +26.4
06 23.08 штиль 0 4000 м 3/0
[Ac trans]
+32.5 +24.8 64 +46 +65 опасность
перегрева
1003.3 975.3
09 23.08 штиль 0 4000 м 3/0
[Ac As]
+34.5 +24.7 57 +48 +64 опасность
перегрева
1000.9 1000.0
12 23.08 штиль 0 4000 м 3/0
[Ac As]
+34.5 +26.3 62 +51 +53 опасность
перегрева
999.4 971.6 +35.5
15 23.08 штиль 0 4000 м 6/3 1000 м
[Sc Ac As]
+32.0 +25.8 70 +47 +47 опасность
перегрева
1000.1 1000.0
18 23.08 штиль 0 4000 м 3/3 1000 м
[Sc]
+29.5 +25.3 78 +43 +43 опасность
перегрева
1001.3 973.1
21 23.08 штиль 0 4000 м 3/3 1000 м
[Sc]
+28.5 +25.7 85 +42 +42 опасность
перегрева
1001.1 972.5
00 24.08 штиль 0 4000 м 3/3 1000 м
[Sc]
+27.5 +25.4 88 +40 +40 очень
душно
1001.7 973.4
03 24.08 штиль 0 4000 м 3/0
[Ac As]
+30.0 +27.3 85 +48 +54 опасность
перегрева
1003.4 975.1 +27.2
06 24.08 штиль 0 4000 м 3/3 1000 м
[Sc]
+34.0 +26.5 65 +51 +68 опасность
перегрева
1003.4 975.5
09 24.08 ЮЗ 1 4000 м 4/4 1000 м
[Sc]
+36.0 +25.6 55 +51 +62 опасность
перегрева
1001.7 1000.0
12 24.08 ЮЗ 1 4000 м 4/4 1000 м
[Sc]
+35.5 +25.1 55 +49 +51 опасность
перегрева
1000.8 973.3 +36.3
15 24.08 штиль 0 4000 м ясно +32.5 +24.0 61 +44 +44 опасность
перегрева
1001.0 1000.0
18 24.08 штиль 0 4000 м ясно +30.0 +22.8 65 +40 +40 очень
душно
1001.7 973.7
21 24.08 штиль 0 4000 м ясно +29.0 +23.2 71 +39 +39 очень
душно
1001.8 1000.0
00 25.08 ЮВ 3 4000 м 9/5 1000 м
[Sc Ac As]
+27.5 +23.9 81 +38 +38 очень
душно
1001.6 973.3
03 25.08 ЮВ 1 4000 м 8/4 1000 м
[Sc diur, vesp Ac As]
+28.0 +23.7 77 +38 +40 очень
душно
1002.2 973.9 +27.1
06 25.08 ЮВ 1 4000 м 8/4 1000 м
[Sc diur, vesp Ac As]
+31.0 +23.1 63 +41 +48 опасность
перегрева
1003.3 975.2
09 25.08 штиль 0 4000 м 6/4 1000 м
[Sc diur, vesp Ac As]
+33.5 +24.4 59 +46 +55 опасность
перегрева
1001.6 1000.0
12 25.08 ЮВ 1 4000 м 6/3 1000 м
[Sc diur, vesp Ac As]
+32.0 +23.4 60 +43 +44 опасность
перегрева
1000.8 972.9 +33.5
15 25.08 штиль 0 4000 м 6/3 1000 м
[Sc Ac As]
+31.5 +23.6 63 +43 +43 опасность
перегрева
1001.6 1000.0
18 25.08 штиль 0 4000 м 9/4 1000 м
[Sc Ac As]
+29.5 +24.5 75 +42 +42 опасность
перегрева
1003.4 975.1
21 25.08 ЮВ 1 2000 м слаб. дождь {гроза} 10/5 600 м
[Sc As op]
+26.0 +24.6 92 +37 +37 очень
душно
1003.5 974.6 10
00 26.08 штиль 0 4000 м {морось} 9/4 1000 м
[Sc Ac As]
+24.0 +23.3 96 +32 +32 очень
душно
1004.4 975.5 0.9
03 26.08 штиль 0 4000 м 6/3 1000 м
[Sc Ac As]
+26.0 +24.6 92 +37 +40 очень
душно
1005.2 975.2 +23.9

 

Местоположение метеостанции Сиялкот (Пакистан): широта 32.50 долгота 74.53 высота над уровнем моря 256 м.

В архиве по умолчанию представлена погода в Сиялкоте за последнюю неделю. Архивные данные за месяц целиком и за предыдущие месяцы, начиная с января 2011 года, Вы можете получить, выбрав интересующий диапазон дат из раскрывающегося списка и нажав кнопку "Ввод!".


*Определитесь, кто Вы:
робот инопланетянин человек

Внимание! Время в таблицах - всемирное. Для получения местного времени необходимо прибавить поправку, которая равна 5 ч.

Смотрите также архив погоды в соседних городах и на ближайших метеорологических станциях:

Погода в Джамму (Джамму и Кашмир, Индия) (34 км)
Погода в Гуджрате (Пакистан) (40 км)
Погода в Сиалкот аэропорту (Пакистан) (47 км)
Погода в Гуджранвале (Пакистан) (53 км)
Погода в Наровале (Пакистан) (53 км)
Погода в Катре (Джамму и Кашмир, Индия) (66 км)
Погода в Джеламе (Пакистан) (90 км)
Погода в Хафизабаде (Пакистан) (95 км)
Погода в Батоте (Джамму и Кашмир, Индия) (100 км)
Погода в Амритсаре (Пенджаб, Индия) (102 км)

Пояснения к столбцам:

Ветер - указаны скорость ветра в м/с - средняя за 10 мин, порывы в срок и между сроками (в фигурных скобках) и направление, откуда дует ветер: С - северный, СВ - северо-восточный, В - восточный, ЮВ - юго-восточный, Ю - южный, ЮЗ - юго-западный, З - западный, СЗ - северо-западный.
Видимость - горизонтальная дальность видимости в метрах или километрах. При видимости от 1 до 10 км при отсутствии осадков обычно наблюдается дымка, при ухудшении видимости до 1 км и менее - туман. В сухую погоду видимость может ухудшаться дымом, пылью или мглою.
Явления - указаны атмосферные явления, наблюдавшиеся в срок или в последний час перед сроком; фигурными скобками обозначены явления, наблюдавшиеся между сроками (за 1-3 часа до срока); квадратными скобками обозначены град или гололедные отложения с указанием их диаметра в мм.
Облачность - указаны через наклонную черту общая и нижняя облачность в баллах и высота нижней границы облаков в метрах; квадратными скобками обозначены формы облаков: Ci - перистые, Cs - перисто-слоистые, Cc - перисто-кучевые, Ac - высококучевые, As - высокослоистые, Sc - слоисто-кучевые, Ns - слоисто-дождевые, Cu - кучевые, Cb - кучево-дождевые. Подробнее классификацию облаков см. в Атласе облаков (PDF).
T - Температура воздуха - температура, измеренная на высоте 2 м над землей.
Td - Температура точки росы - температура, при понижении до которой содержащийся в воздухе водяной пар достигнет насыщения.
f - Относительная влажность воздуха - влажноcть воздуха, измеренная на высоте 2 м над землей.
Te - Эффективная температура - температура, которую ощущает одетый по сезону человек в тени. Характеристика душности погоды. При расчете учитывается влияние влажности воздуха и скорости ветра на теплоощущения человека.
Tes - Эффективная температура на солнце - температура, которую ощущает человек, с поправкой на солнечный нагрев. Характеристика знойности погоды. Зависит от высоты солнца над горизонтом, облачности и скорости ветра. Ночью, в пасмурную погоду, а также при ветре 12 м/с и более поправка равна нулю.
P - Атмосферное давление - приведенное к уровню моря атмосферное давление.
Po - Атмосферное давление - измеренное на уровне метеостанции атмосферное давление.
Tmin - Минимальная температура - минимум температуры воздуха на высоте 2 м над землей.
Tmax - Максимальная температура - максимум температуры воздуха на высоте 2 м над землей.
R - Количество осадков - Количество выпавших осадков за период времени, мм. При наведении курсора мыши на число - период времени, за который выпало указанное количество осадков.
R24 - Количество осадков - Количество выпавших осадков за 24 часа, мм.
S - Снежный покров - Высота снежного покрова, см. При наведении курсора мыши на число - состояние снежного покрова и степень покрытия местности в баллах.